CELTEE 1

Last updated on Sat Aug 15 2026 00:03:44 GMT+0000 (Coordinated Universal Time)

1 41850U 16067C 26226.60104118 .00002733 00000+0 12986-3 0 9990 2 41850 98.0583 97.1496 0002355 71.4052 288.7437 15.20183734534750
UTC large
Height (km)
Speed (km/s)
/
Latitude / Longitude
Inclination (degrees)
Orbital Period (minutes)
Azimuth
Elevation
Range (km)
Doppler Factor

Next 0 passes for location: London (51.5072 / 0.1276)

No passes found over London.
CELTEE 1